C/2015 LC2 ( PanSTARRS )

Japanese version
Home page
Updated on November 13, 2016

---------------------------------------------------------------------

* Profile

Discovery Date June 7, 2015
Magnitude 19.9 mag
Discoverer Pan-STARRS 1 telescope (Haleakala)

* Pictures

* Orbital Elements

Epoch 2015 May 18.0 TT = JDT 2457160.5
T 2015 May 1.57672 TT                                   MPCW
q   5.8905102            (2000.0)            P               Q
z  -0.0003297      Peri.  341.82315     -0.67448568     -0.26849744
 +/-0.0000025      Node   223.56561     -0.49038361     -0.53342363
e   1.0019419      Incl.   93.71814     -0.55189942     +0.80210246
From 99 observations 2015 June 7-2016 Apr. 15, mean residual 0".3.

* Magnitudes Graph

        m1 = -10 + 5 log d + 30 log r(t - 400)

---------------------------------------------------------------------

The orbital elements are published on M.P.E.C. 2016-H35.
The magnitudes graphs are made with Comet for Windows.

---------------------------------------------------------------------

Copyright(C) Seiichi Yoshida (comet@aerith.net). All rights reserved.